| time (UTC) | temp C | wind direction | speed KPH | gust KPH | rain 1hr cm | rain 24hr cm | rain mn cm | humidity % | barometer mb |
| 20260508040003 | 5 | 231 | 0.0 | 0.0 | 0.00 | 0.00 | 0.00 | 85 | 1013.4 |
| 20260508034605 | 4 | 231 | 0.0 | 0.0 | 0.00 | 0.00 | 0.00 | 84 | 1013.3 |
| 20260508033027 | 4 | 231 | 0.0 | 0.0 | 0.00 | 0.00 | 0.00 | 83 | 1013.2 |
| 20260508031515 | 5 | 231 | 0.0 | 0.0 | 0.00 | 0.00 | 0.00 | 83 | 1013.3 |
| 20260508030115 | 5 | 231 | 0.0 | 0.0 | 0.00 | 0.00 | 0.00 | 82 | 1013.5 |
| 20260508024610 | 5 | 231 | 0.0 | 0.0 | 0.00 | 0.00 | 0.00 | 80 | 1013.6 |
| 20260508023006 | 5 | 231 | 0.0 | 0.0 | 0.00 | 0.00 | 0.00 | 79 | 1013.5 |
| 20260508021607 | 5 | 231 | 0.0 | 0.0 | 0.00 | 0.00 | 0.00 | 78 | 1013.4 |
| 20260508020026 | 6 | 231 | 0.0 | 0.0 | 0.00 | 0.00 | 0.00 | 76 | 1013.4 |
| 20260508014627 | 6 | 231 | 0.0 | 0.0 | 0.00 | 0.00 | 0.00 | 70 | 1013.3 |
| 20260508013053 | 7 | 231 | 0.0 | 0.0 | 0.00 | 0.00 | 0.00 | 68 | 1013.3 |
| 20260508011526 | 8 | 231 | 0.0 | 0.0 | 0.00 | 0.00 | 0.00 | 64 | 1013.2 |
| 20260508010126 | 9 | 231 | 0.0 | 0.0 | 0.00 | 0.00 | 0.00 | 60 | 1013.1 |
| 20260508004555 | 9 | 231 | 0.0 | 3.2 | 0.00 | 0.00 | 0.00 | 57 | 1013.1 |
| 20260508003008 | 10 | 285 | 3.2 | 17.7 | 0.00 | 0.00 | 0.00 | 54 | 1013.0 |
| 20260508001533 | 10 | 288 | 4.8 | 19.3 | 0.00 | 0.00 | 0.00 | 53 | 1012.8 |
| 20260508000024 | 10 | 251 | 6.4 | 17.7 | 0.00 | 0.00 | 0.00 | 51 | 1012.7 |
| 20260507234523 | 11 | 290 | 9.7 | 27.4 | 0.00 | 0.00 | 0.00 | 50 | 1012.5 |
| 20260507233023 | 11 | 246 | 14.5 | 24.1 | 0.00 | 0.00 | 0.00 | 49 | 1012.5 |
| 20260507231523 | 11 | 213 | 14.5 | 25.7 | 0.00 | 0.00 | 0.00 | 50 | 1012.5 |
| 20260507230021 | 11 | 298 | 12.9 | 27.4 | 0.00 | 0.00 | 0.00 | 50 | 1012.6 |
| 20260507224521 | 11 | 252 | 12.9 | 32.2 | 0.00 | 0.00 | 0.00 | 51 | 1012.6 |
| 20260507223021 | 11 | 257 | 11.3 | 22.5 | 0.00 | 0.00 | 0.00 | 50 | 1012.5 |
| 20260507221521 | 12 | 317 | 12.9 | 33.8 | 0.00 | 0.00 | 0.00 | 49 | 1012.5 |
| 20260507220018 | 12 | 265 | 12.9 | 30.6 | 0.00 | 0.00 | 0.00 | 46 | 1012.4 |
| 20260507214518 | 12 | 250 | 9.7 | 19.3 | 0.00 | 0.00 | 0.00 | 50 | 1012.4 |
| 20260507213026 | 12 | 298 | 9.7 | 22.5 | 0.00 | 0.00 | 0.00 | 54 | 1012.3 |
| 20260507211517 | 11 | 200 | 11.3 | 25.7 | 0.00 | 0.00 | 0.00 | 52 | 1012.2 |
| 20260507210017 | 12 | 253 | 14.5 | 33.8 | 0.00 | 0.00 | 0.00 | 52 | 1012.1 |
| 20260507204517 | 12 | 313 | 8.0 | 33.8 | 0.00 | 0.00 | 0.00 | 52 | 1012.0 |
| 20260507203031 | 12 | 235 | 6.4 | 27.4 | 0.00 | 0.00 | 0.00 | 53 | 1012.1 |
| 20260507201516 | 12 | 240 | 8.0 | 29.0 | 0.00 | 0.00 | 0.00 | 48 | 1012.1 |
| 20260507200012 | 12 | 269 | 9.7 | 30.6 | 0.00 | 0.00 | 0.00 | 46 | 1012.3 |
| 20260507194516 | 12 | 266 | 11.3 | 35.4 | 0.00 | 0.00 | 0.00 | 47 | 1012.4 |
| 20260507193008 | 12 | 310 | 11.3 | 25.7 | 0.00 | 0.00 | 0.00 | 45 | 1012.6 |
| 20260507191511 | 12 | 240 | 11.3 | 25.7 | 0.00 | 0.00 | 0.00 | 46 | 1012.7 |
| 20260507190011 | 12 | 282 | 14.5 | 33.8 | 0.00 | 0.00 | 0.00 | 46 | 1012.8 |
| 20260507184503 | 12 | 273 | 12.9 | 29.0 | 0.00 | 0.00 | 0.00 | 47 | 1012.8 |
| 20260507183005 | 12 | 244 | 12.9 | 22.5 | 0.00 | 0.00 | 0.00 | 48 | 1012.9 |
| 20260507181503 | 12 | 296 | 6.4 | 27.4 | 0.00 | 0.00 | 0.00 | 50 | 1012.6 |
| 20260507174603 | 13 | 224 | 9.7 | 22.5 | 0.00 | 0.00 | 0.00 | 51 | 1012.7 |
| 20260507173131 | 12 | 226 | 8.0 | 27.4 | 0.00 | 0.00 | 0.00 | 53 | 1012.8 |
| 20260507171600 | 12 | 279 | 12.9 | 24.1 | 0.00 | 0.00 | 0.00 | 47 | 1012.9 |
| 20260507170058 | 12 | 333 | 8.0 | 19.3 | 0.00 | 0.00 | 0.00 | 50 | 1012.7 |
| 20260507164557 | 13 | 304 | 6.4 | 24.1 | 0.00 | 0.00 | 0.00 | 52 | 1012.8 |
| 20260507163055 | 12 | 279 | 12.9 | 24.1 | 0.00 | 0.00 | 0.00 | 52 | 1012.8 |
| 20260507161601 | 13 | 265 | 12.9 | 25.7 | 0.00 | 0.00 | 0.00 | 50 | 1012.9 |
| 20260507160100 | 13 | 240 | 9.7 | 20.9 | 0.00 | 0.00 | 0.00 | 52 | 1012.9 |
| 20260507154549 | 12 | 245 | 4.8 | 16.1 | 0.00 | 0.00 | 0.00 | 56 | 1013.0 |
| 20260507153053 | 12 | 274 | 9.7 | 17.7 | 0.00 | 0.00 | 0.00 | 55 | 1013.2 |
| 20260507151546 | 12 | 286 | 4.8 | 16.1 | 0.00 | 0.00 | 0.00 | 55 | 1013.2 |
| 20260507150045 | 12 | 296 | 6.4 | 17.7 | 0.00 | 0.00 | 0.00 | 56 | 1013.2 |
| 20260507144544 | 11 | 234 | 4.8 | 16.1 | 0.00 | 0.00 | 0.00 | 59 | 1013.1 |
| 20260507143056 | 12 | 297 | 6.4 | 17.7 | 0.00 | 0.00 | 0.00 | 58 | 1013.2 |
| 20260507141553 | 12 | 234 | 4.8 | 14.5 | 0.00 | 0.00 | 0.00 | 56 | 1013.4 |
| 20260507140041 | 12 | 303 | 1.6 | 8.0 | 0.00 | 0.00 | 0.00 | 61 | 1013.6 |
| 20260507134538 | 11 | 252 | 3.2 | 9.7 | 0.00 | 0.00 | 0.00 | 64 | 1013.7 |
| 20260507133102 | 11 | 289 | 6.4 | 11.3 | 0.00 | 0.00 | 0.00 | 65 | 1013.7 |
| 20260507131531 | 10 | 285 | 4.8 | 11.3 | 0.00 | 0.00 | 0.00 | 69 | 1013.6 |
| 20260507130026 | 10 | 256 | 4.8 | 17.7 | 0.00 | 0.00 | 0.00 | 69 | 1013.6 |
| 20260507124528 | 10 | 225 | 4.8 | 12.9 | 0.00 | 0.00 | 0.00 | 75 | 1013.7 |
| 20260507123031 | 9 | 232 | 4.8 | 12.9 | 0.00 | 0.00 | 0.00 | 74 | 1013.7 |
| 20260507121518 | 8 | 248 | 4.8 | 9.7 | 0.00 | 0.00 | 0.00 | 76 | 1013.6 |
| 20260507120012 | 7 | 288 | 0.0 | 4.8 | 0.00 | 0.00 | 0.00 | 81 | 1013.6 |
| 20260507114508 | 7 | 288 | 0.0 | 3.2 | 0.00 | 0.00 | 0.00 | 85 | 1013.7 |
| 20260507113010 | 6 | 288 | 0.0 | 0.0 | 0.00 | 0.00 | 0.00 | 87 | 1013.6 |
| 20260507111504 | 6 | 288 | 0.0 | 0.0 | 0.00 | 0.00 | 0.00 | 88 | 1013.4 |
| 20260507110001 | 5 | 288 | 0.0 | 0.0 | 0.00 | 0.00 | 0.00 | 88 | 1013.4 |
| 20260507104604 | 5 | 288 | 0.0 | 0.0 | 0.00 | 0.03 | 0.00 | 89 | 1013.2 |
| 20260507103100 | 5 | 288 | 0.0 | 0.0 | 0.00 | 0.03 | 0.00 | 90 | 1013.1 |
| 20260507101605 | 4 | 288 | 0.0 | 0.0 | 0.00 | 0.03 | 0.00 | 91 | 1013.2 |
| 20260507100052 | 3 | 288 | 0.0 | 0.0 | 0.00 | 0.03 | 0.00 | 90 | 1013.1 |
| 20260507094618 | 3 | 288 | 0.0 | 0.0 | 0.00 | 0.10 | 0.00 | 90 | 1013.0 |
| 20260507093048 | 3 | 288 | 0.0 | 0.0 | 0.00 | 0.10 | 0.00 | 88 | 1013.1 |
| 20260507091510 | 3 | 288 | 0.0 | 0.0 | 0.00 | 0.10 | 0.00 | 88 | 1013.1 |
| 20260507090108 | 3 | 288 | 0.0 | 0.0 | 0.00 | 0.10 | 0.00 | 87 | 1013.1 |
| 20260507084536 | 3 | 288 | 0.0 | 0.0 | 0.00 | 0.30 | 0.00 | 87 | 1013.2 |
| 20260507083130 | 3 | 177 | 0.0 | 0.0 | 0.00 | 0.30 | 0.00 | 87 | 1013.2 |
| 20260507081546 | 3 | 177 | 0.0 | 0.0 | 0.00 | 0.30 | 0.00 | 87 | 1013.4 |
| 20260507080014 | 3 | 290 | 0.0 | 0.0 | 0.00 | 0.30 | 0.00 | 87 | 1013.4 |
| 20260507074609 | 3 | 290 | 0.0 | 0.0 | 0.00 | 0.38 | 0.00 | 87 | 1013.4 |
| 20260507073035 | 4 | 290 | 0.0 | 0.0 | 0.00 | 0.38 | 0.00 | 88 | 1013.4 |
| 20260507071630 | 3 | 290 | 0.0 | 0.0 | 0.00 | 0.38 | 0.00 | 89 | 1013.5 |
| 20260507070100 | 3 | 290 | 0.0 | 0.0 | 0.00 | 0.38 | 0.00 | 89 | 1013.6 |
| 20260507064517 | 3 | 290 | 0.0 | 0.0 | 0.00 | 0.46 | 0.00 | 89 | 1013.7 |
| 20260507063118 | 3 | 290 | 0.0 | 0.0 | 0.00 | 0.46 | 0.00 | 89 | 1013.8 |
| 20260507061532 | 4 | 290 | 0.0 | 0.0 | 0.00 | 0.46 | 0.00 | 88 | 1013.9 |
| 20260507060123 | 4 | 290 | 0.0 | 0.0 | 0.00 | 0.46 | 0.00 | 87 | 1014.1 |
| 20260507054533 | 5 | 290 | 0.0 | 0.0 | 0.00 | 0.56 | 0.00 | 87 | 1014.1 |
| 20260507053128 | 5 | 290 | 0.0 | 0.0 | 0.00 | 0.56 | 0.00 | 87 | 1014.2 |
| 20260507051542 | 5 | 290 | 0.0 | 0.0 | 0.00 | 0.56 | 0.00 | 88 | 1014.5 |
| 20260507050015 | 5 | 290 | 0.0 | 0.0 | 0.00 | 0.56 | 0.00 | 89 | 1014.4 |
| 20260507044622 | 5 | 290 | 0.0 | 0.0 | 0.00 | 0.71 | 0.00 | 89 | 1014.5 |
| 20260507043023 | 5 | 290 | 0.0 | 0.0 | 0.00 | 0.71 | 0.00 | 90 | 1014.5 |
| 20260507041622 | 5 | 290 | 0.0 | 0.0 | 0.00 | 0.71 | 0.00 | 90 | 1014.6 |